カタログに戻る

FENGYUN 1C DEB

運用中SSO
NORAD 36679·DEBRIS·🇨🇳 China

打ち上げ May 10, 1999 から Taiyuan Satellite Launch Center

Loading…

次のパス (今後24時間)

TLE

経年Source: Space-Track

元期: Sep 4, 2026, 17:13 UTC

1 36679U 99025DYZ 26247.71750121  .00000488  00000-0  31823-3 0  9991
2 36679  98.8496 242.1182 0086275  69.3629 291.6765 14.05052926282833

AllMySatでFENGYUN 1C DEBをリアルタイム追跡

Download on the App Store